Showing default

PE2_FLT2 (TYVAK-0262), 59104

Orbit data source: Space-Track

PE2_FLT2 (TYVAK-0262), 59104 is a payload satellite owned by Tyvak NSS (US) in SSO that was launched on Mon, 04 Mar 2024 UTC via an FALCON 9 launch vehicle from the Air Force Western Test Range (AFWTR). Payload-class satellites include a variety of spacecraft equipped with specific instruments for various scientific and technological missions. These include communications satellites like Starlink; space stations such as the ISS; scientific satellites like the Hubble; Earth observation satellites from companies like Planet Labs, Umbra, and HawkEye 360; GPS; miniature CubeSats for education and research; and military/defense satellites.

Loading next visibility...
Identifier
59104, 2024-043G
Orbit
SSO
Country
Flag of USUS
Related business
Manufacturer
Tyvak NSS
Mission
Operational Commercial Technology
Bus & Motor
CUBESAT 12U, Unknown motor
Mass
26 kg wet, 26 kg dry
Launch date (UTC)
2024-03-04 (2 years ago)
Launch vehicle
FALCON 9
Launch site
Air Force Western Test Range (AFWTR)
Object type
Payload
Rocket body
Debris
Shape & HBR
Box + 2 Pan, 0.7 m
Radar Cross Section
0.149 m², Medium (>0.1 m² and < 1m²)

Expand to show TLE details & history
Last TLE update: 2 days ago

TLE from 2 days ago
0 PE2_FLT2 (TYVAK-0262)
1 59104U 24043G   26171.32849216  .00001766  00000-0  15770-3 0  9997
2 59104  97.8407 302.0141 0007098  44.0038 316.1747 14.97235890125128
Epoch: 2026-06-20T07:53Z
TLE epoch observation values (Epoch: 2026-06-20T07:53:01.722Z)
Latitude
-0.00008°
Longitude
-84.78775°
Altitude
574.928 km
Speed
7.575 km/s
True Right ascension
20h 08m 03s
True Declination
0° 00' 00"
Sunlit
Object was in full shadow at epoch
Visualization orbit readout
Latitude
Unknown
Longitude
Unknown
Altitude
Unknown
Speed
Unknown
Apparent Right ascension
Unknown
Apparent Declination
Unknown
Sunlit
N/A
Visualization observer readout
Local Sidereal Time
21:38:46
Azimuth
Unknown
Elevation
Unknown
Doppler factor
Unknown
Orbital elements
Apogee altitude
577.39 km
Perigee altitude
567.523 km
Semi-major axis
6,950.594 km
Eccentricity
0.00071
Inclination
97.8407°
RAAN
302.0141°
Arg. of periapsis
44.0038°
True anomaly
316.11834°
Mean anomaly
316.1747°
Eccentric anomaly
316.14652°
Mean motion
3.7455 °/min
Orbital period
96.12 mins
BSTAR
0.0001577
Loading maneuver chart data...
Computing Atmospheric mass density...
Loading historical data...
Loading historical data...
Loading historical data...
Loading historical data...
Loading historical data...
Loading historical data...
Loading historical data...

Documentation

Showing up to 5 results
|